sat.trackr.live / text

‹ back to catalog

STARLINK-33728

NORAD 63715 · 2025-087U

PAYLOAD ACTIVE UNKNOWN

§ Identity

Operator
Country
US
Launch date
2025-04-28
Launch site
AFWTR
Launch vehicle
Mass (kg)
RCS (m²)

Purposes: comms

External: N2YO · Heavens-Above · Gunter

§ Orbital elements

Epoch: 2026-05-25T04:29:52.438272Z

Period
94.11 min
Inclination
53.1570°
Eccentricity
0.0001292
Mean motion
15.30202326 rev/d
Perigee alt
474.3 km
Apogee alt
476.1 km
Semi-major
6,853.3 km
B*
5.4047e-4
RAAN
224.0936°
Arg perigee
76.1864°
Mean anomaly
283.9281°
Rev number
6,091

§ Raw data

STARLINK-337281 63715U 25087U   26145.18741248  .00015683  00000+0  54047-3 0  99922 63715  53.1570 224.0936 0001292  76.1864 283.9281 15.30202326 60910

JSON: /api/v1/satellites/63715 · /tle

For live sub-satellite position, see the globe view (requires WebGL).

§ Visibility from observer

Set your observer location to see the next 7 days of passes ≥ 10°. The values pass through the URL so the page stays shareable.

No JS? Fill the form by hand. The geolocation button needs JavaScript.